Vorticity
nan nan nan nan nan nan nan nan nan nan nan nan nan nan nan nan nan nan nan nan nan nan nan nan nan nan nan nan nan nan nan nan nan nan nan nan nan nan nan nan nan nan nan
nan 12 8 6 4 3 5 4 4 5 6 6 5 5 5 5 5 5 4 5 5 5 6 6 4 3 3 5 5 4 3 3 4 5 5 5 4 5 5 7 10 7 nan
nan 8 8 7 5 4 6 4 4 6 6 4 4 5 5 4 5 5 5 6 6 6 6 6 6 6 4 4 5 5 6 7 4 4 6 6 6 6 6 8 11 11 nan
nan 8 9 8 5 5 6 5 5 3 4 7 5 4 5 5 5 5 5 6 6 6 7 7 7 7 7 7 6 6 9 7 3 4 7 7 6 6 6 7 8 8 nan
nan 6 9 9 4 7 6 5 5 4 5 7 6 5 5 5 5 5 6 5 6 6 7 7 7 7 8 8 7 8 7 3 4 6 7 7 7 7 6 5 5 5 nan
nan 7 9 9 5 7 6 5 5 7 6 4 5 6 5 5 6 5 6 5 6 6 7 6 5 8 8 9 7 6 5 5 4 7 7 8 9 8 5 5 5 3 nan
nan 8 9 8 5 7 6 5 8 7 5 5 5 6 5 6 5 6 5 6 6 7 6 7 9 10 8 7 6 7 5 6 7 6 7 8 8 6 5 4 4 5 nan
nan 8 11 8 6 6 6 7 9 7 5 6 6 6 6 6 6 6 6 6 7 7 7 5 10 8 7 6 6 6 6 7 7 5 9 6 7 4 3 5 6 5 nan
nan 6 10 8 8 7 5 9 8 7 6 6 6 7 6 6 6 6 5 6 7 7 6 6 7 7 6 5 4 4 5 7 8 8 7 6 6 5 3 5 6 9 nan
nan 6 7 9 7 6 8 9 7 7 7 7 6 7 7 6 7 6 5 7 7 7 6 10 7 6 5 4 5 4 4 5 7 8 6 9 6 4 7 6 6 8 nan
nan 7 6 9 7 7 8 6 7 7 5 4 4 4 5 7 7 6 8 8 9 7 7 9 6 4 2 1 3 5 4 7 6 5 6 9 6 5 7 7 7 7 nan
nan 6 6 7 8 8 7 7 5 4 4 5 6 3 5 7 6 6 8 9 6 5 7 4 2 0 2 3 3 4 7 8 5 7 8 6 6 8 7 6 6 7 nan
nan 13 12 9 9 5 4 4 7 7 7 8 6 5 6 5 5 6 5 7 5 6 6 3 1 4 7 8 8 7 8 6 7 6 8 8 8 6 5 5 6 7 nan
nan 8 21 17 5 5 6 8 7 7 7 7 7 6 5 6 7 7 7 7 6 7 8 5 7 8 7 8 7 7 7 7 8 7 6 9 9 7 6 5 5 6 nan
nan 9 19 18 8 6 6 8 7 7 8 8 8 6 7 7 7 7 7 7 8 9 6 7 8 7 6 6 6 6 6 7 8 8 4 5 10 8 6 6 6 5 nan
nan 3 5 24 28 8 6 8 5 7 8 7 8 9 8 7 7 7 7 7 8 8 9 8 7 7 7 7 7 7 6 6 6 8 6 3 6 9 7 6 6 6 nan
nan 7 3 4 21 26 10 3 6 8 7 7 9 9 7 7 8 7 7 8 8 9 8 7 7 7 7 7 7 6 6 7 6 6 6 5 3 5 8 7 6 6 nan
nan 7 9 5 2 8 17 19 10 8 7 8 8 8 8 8 7 6 7 8 8 8 6 7 6 6 7 7 6 6 7 7 7 6 7 7 6 5 5 7 6 6 nan
nan 8 9 5 5 8 9 9 12 12 8 8 7 9 9 8 7 7 7 9 8 7 8 6 7 8 7 7 8 7 7 7 6 6 7 6 7 7 5 4 4 6 nan
nan 6 7 9 8 -0 2 7 6 8 10 10 8 10 9 8 8 7 8 9 7 7 7 8 7 7 9 7 6 7 8 7 7 7 6 6 7 7 6 4 4 4 nan
nan 4 6 5 3 5 5 4 8 7 8 10 11 11 8 8 8 6 7 8 7 9 9 6 7 7 7 7 6 6 7 9 9 7 7 7 7 7 6 6 6 6 nan
nan 6 5 5 4 2 2 5 10 8 8 9 11 10 9 8 7 7 7 8 7 8 10 7 4 3 9 8 4 9 9 8 9 9 8 9 7 7 7 7 6 6 nan
nan 10 8 6 3 6 6 4 5 5 9 11 9 10 10 9 8 8 8 8 8 7 9 8 6 6 7 9 8 8 9 9 9 10 10 9 9 7 8 9 8 8 nan
nan 9 9 9 9 11 7 11 9 3 3 6 9 9 11 9 8 8 8 8 7 8 9 8 8 7 9 8 7 7 9 11 9 8 9 10 10 10 9 9 10 9 nan
nan 10 9 8 11 10 8 5 6 8 8 12 11 9 8 9 9 9 9 8 6 8 10 9 8 6 7 9 8 8 6 8 10 10 9 10 9 10 9 8 9 10 nan
nan nan nan nan nan nan nan nan nan nan nan nan nan nan nan nan nan nan nan nan nan nan nan nan nan nan nan nan nan nan nan nan nan nan nan nan nan nan nan nan nan nan nan
CAPE
22 218 994 909 753 1152 1143 805 673 859 1127 1278 694 360 510 850 651 747 636 490 428 355 60 44 50 90 100 18 9 28 45 139 222 316 358 406 228 84 218 322 47 0 72
28 278 869 842 600 1532 1121 1098 1082 1553 1462 1271 920 867 709 628 533 318 231 85 53 43 23 8 6 12 88 31 15 11 2 0 38 193 284 266 323 174 179 294 292 140 72
90 322 456 1157 693 1633 1454 1179 1277 1629 1533 1324 834 661 513 375 131 32 0 0 0 0 1 5 7 8 7 0 0 0 0 0 101 173 169 108 158 288 236 201 371 400 359
191 455 495 1265 1106 1636 1548 1275 1195 1276 1428 1087 565 465 267 68 10 2 1 0 0 1 1 0 0 0 0 0 0 0 14 9 88 13 0 12 24 182 198 279 288 244 239
314 613 669 1254 1361 1797 1636 1295 1179 1210 1521 930 455 278 60 8 1 2 2 2 1 2 1 1 1 2 0 0 0 15 149 53 0 6 8 42 18 59 137 149 141 203 143
427 672 752 1197 1357 1843 1483 1240 1214 1293 964 652 291 46 8 3 3 3 3 3 3 3 1 4 5 5 1 0 13 38 38 5 0 0 27 109 117 162 188 81 51 30 41
581 600 723 1242 1322 1817 1360 1257 1350 1255 853 414 70 6 3 4 5 5 6 3 4 3 3 7 10 16 8 13 14 20 15 0 0 87 87 134 102 62 55 41 32 14 10
673 544 759 1001 1190 1523 1286 1181 1445 1090 580 89 7 3 3 8 8 6 6 2 4 2 7 9 34 19 20 13 22 23 0 0 26 22 43 52 98 60 38 12 6 3 0
692 670 912 874 1041 1023 1046 1363 1135 875 255 55 8 6 12 14 11 8 3 3 2 5 9 16 29 18 13 36 26 10 0 0 1 11 39 44 62 27 17 8 5 2 3
778 775 788 828 972 1069 1237 790 534 266 64 12 10 17 15 11 16 15 13 6 3 15 6 47 25 32 24 17 6 0 0 0 14 23 33 42 31 24 9 17 6 7 9
795 722 932 1018 985 962 778 211 69 8 7 6 5 3 0 2 2 0 0 9 20 9 23 37 36 20 3 0 0 0 0 0 5 22 24 44 3 11 18 10 10 10 7
568 625 1096 1308 808 350 44 1 0 4 2 0 0 0 0 0 0 0 0 7 16 23 51 32 8 0 0 0 0 0 0 0 0 1 6 21 10 11 10 11 8 7 12
1 425 774 649 128 19 0 0 0 0 0 0 0 0 0 0 0 0 0 0 0 0 25 0 0 0 0 0 0 0 0 0 0 0 0 9 9 14 15 11 12 7 5
19 8 2 106 2 0 0 0 0 0 0 0 0 0 0 0 0 0 0 0 0 0 0 0 0 0 0 0 0 0 0 0 0 0 2 17 17 17 14 13 10 10 8
3 7 5 12 1 0 0 0 0 0 0 0 0 0 0 0 0 0 0 0 0 0 0 0 0 0 0 0 0 0 0 0 0 0 0 4 22 19 17 17 16 14 10
1 12 1 2 2 0 0 0 0 0 0 0 0 0 0 0 0 0 0 0 0 0 0 0 0 0 0 0 0 0 0 0 0 0 0 0 3 7 5 6 7 8 9
0 1 1 0 1 2 1 0 0 0 0 0 0 0 0 0 0 0 0 0 0 0 0 0 0 0 0 0 0 0 0 0 0 0 0 0 0 0 0 0 0 2 3
16 1 1 3 2 1 6 0 0 0 0 0 0 0 0 0 0 0 0 0 0 0 0 0 0 0 0 0 0 0 0 0 0 0 0 0 0 0 0 0 0 0 0
2 3 1 0 1 3 0 0 0 0 0 0 0 0 0 0 0 0 0 0 0 0 0 0 0 0 0 0 0 0 0 0 0 0 0 0 0 0 0 0 0 0 0
3 3 2 3 1 0 0 0 0 0 0 0 0 0 0 0 0 0 0 0 0 0 0 0 0 0 0 0 0 0 0 0 0 0 0 0 0 0 0 0 0 0 0
7 0 2 2 0 0 0 0 4 0 0 0 0 0 0 0 0 0 0 0 0 0 0 0 0 0 0 0 0 0 0 0 0 0 0 0 0 0 0 0 0 0 0
7 4 5 0 0 0 0 0 1 0 0 0 0 0 0 0 0 0 0 0 0 0 0 0 0 0 0 0 0 0 0 0 0 0 0 0 0 0 0 0 0 0 0
1 3 1 2 1 0 0 0 0 0 0 0 0 0 0 0 0 0 0 0 0 0 0 0 0 0 0 0 0 0 0 0 0 0 0 0 0 0 0 0 0 0 0
2 1 1 1 2 4 1 0 0 0 0 0 0 0 0 0 0 0 0 0 0 0 0 0 0 0 0 0 0 0 0 0 0 0 0 0 0 0 0 0 0 0 0
20 2 2 2 2 1 2 0 0 0 0 0 0 0 0 0 0 0 0 0 0 0 0 0 0 0 0 0 0 0 0 0 0 0 0 0 0 0 0 0 0 0 0
40 4 3 3 3 2 3 2 2 0 0 0 0 0 0 0 0 0 0 0 0 0 0 0 0 0 0 0 0 0 0 0 0 0 0 0 0 0 0 0 0 0 0